Time,TemperatureF,DewpointF,PressureIn,WindDirection,WindDirectionDegrees,WindSpeedMPH,WindSpeedGustMPH,Humidity,HourlyPrecipIn,Conditions,Clouds,dailyrainin,SoftwareType,DateUTC
2013-05-05 00:02:00,73.0,69.0,29.80,WNW,289,6.0,10.0,87,0.00,,,0.00,,2013-05-05 04:02:00,
2013-05-05 00:12:00,73.0,69.0,29.80,WNW,289,6.0,10.0,87,0.00,,,0.00,,2013-05-05 04:12:00,
2013-05-05 00:23:00,73.0,69.0,29.80,WNW,301,6.0,11.0,87,0.00,,,0.00,,2013-05-05 04:23:00,
2013-05-05 00:32:00,73.0,69.0,29.80,NNW,344,5.0,11.0,87,0.00,,,0.00,,2013-05-05 04:32:00,
2013-05-05 00:43:00,73.0,69.0,29.80,NNW,344,5.0,11.0,87,0.00,,,0.00,,2013-05-05 04:43:00,
2013-05-05 00:53:00,72.0,68.0,29.80,West,273,6.0,14.0,88,0.00,,,0.00,,2013-05-05 04:53:00,
2013-05-05 01:02:00,72.0,68.0,29.80,West,277,8.0,15.0,88,0.00,,,0.00,,2013-05-05 05:02:00,
2013-05-05 01:12:00,72.0,68.0,29.80,West,277,8.0,15.0,88,0.00,,,0.00,,2013-05-05 05:12:00,
2013-05-05 01:22:00,72.0,68.0,29.80,West,279,7.0,14.0,88,0.00,,,0.00,,2013-05-05 05:22:00,
2013-05-05 01:32:00,72.0,68.0,29.80,West,263,7.0,14.0,88,0.00,,,0.00,,2013-05-05 05:32:00,
2013-05-05 01:42:00,72.0,68.0,29.80,West,263,7.0,14.0,88,0.00,,,0.00,,2013-05-05 05:42:00,
2013-05-05 01:52:00,71.0,68.0,29.80,West,275,7.0,14.0,89,0.00,,,0.00,,2013-05-05 05:52:00,
2013-05-05 02:01:00,70.0,67.0,29.79,NW,315,6.0,13.0,91,0.00,,,0.00,,2013-05-05 06:01:00,
2013-05-05 02:12:00,70.0,67.0,29.79,NW,315,6.0,13.0,91,0.00,,,0.00,,2013-05-05 06:12:00,
2013-05-05 02:21:00,69.0,67.0,29.79,West,263,9.0,15.0,92,0.04,,,0.04,,2013-05-05 06:21:00,
2013-05-05 02:32:00,69.0,67.0,29.78,WNW,288,7.0,15.0,92,0.04,,,0.04,,2013-05-05 06:32:00,
2013-05-05 02:42:00,69.0,67.0,29.78,WNW,288,7.0,15.0,92,0.04,,,0.04,,2013-05-05 06:42:00,
2013-05-05 02:52:00,69.0,67.0,29.79,WNW,285,6.0,12.0,92,0.04,,,0.04,,2013-05-05 06:52:00,
2013-05-05 03:01:00,69.0,67.0,29.78,NNW,333,5.0,13.0,92,0.04,,,0.04,,2013-05-05 07:01:00,
2013-05-05 03:11:00,69.0,67.0,29.78,NNW,333,5.0,13.0,92,0.04,,,0.04,,2013-05-05 07:11:00,
2013-05-05 03:22:00,69.0,67.0,29.78,NW,321,6.0,13.0,92,0.00,,,0.04,,2013-05-05 07:22:00,
2013-05-05 03:32:00,69.0,66.0,29.78,North,355,8.0,14.0,91,0.00,,,0.04,,2013-05-05 07:32:00,
2013-05-05 03:42:00,69.0,66.0,29.78,North,355,8.0,14.0,91,0.00,,,0.04,,2013-05-05 07:42:00,
2013-05-05 03:52:00,69.0,66.0,29.78,WNW,285,7.0,16.0,91,0.00,,,0.04,,2013-05-05 07:52:00,
2013-05-05 04:02:00,68.0,65.0,29.78,WNW,291,5.0,14.0,91,0.02,,,0.06,,2013-05-05 08:02:00,
2013-05-05 04:11:00,68.0,65.0,29.78,WNW,291,5.0,14.0,91,0.02,,,0.06,,2013-05-05 08:11:00,
2013-05-05 04:21:00,68.0,65.0,29.78,West,276,6.0,11.0,90,0.02,,,0.06,,2013-05-05 08:21:00,
2013-05-05 04:32:00,68.0,64.0,29.79,West,274,6.0,13.0,88,0.02,,,0.06,,2013-05-05 08:32:00,
2013-05-05 04:42:00,68.0,64.0,29.79,West,274,6.0,13.0,88,0.02,,,0.06,,2013-05-05 08:42:00,
2013-05-05 04:53:00,68.0,63.0,29.80,West,265,7.0,14.0,85,0.02,,,0.06,,2013-05-05 08:53:00,
2013-05-05 05:01:00,69.0,64.0,29.79,West,273,6.0,11.0,84,0.00,,,0.06,,2013-05-05 09:01:00,
2013-05-05 05:11:00,69.0,64.0,29.79,West,273,6.0,11.0,84,0.00,,,0.06,,2013-05-05 09:11:00,
2013-05-05 05:21:00,69.0,64.0,29.79,NW,306,8.0,15.0,83,0.00,,,0.06,,2013-05-05 09:21:00,
2013-05-05 05:33:00,68.0,62.0,29.79,NW,318,6.0,14.0,80,0.00,,,0.06,,2013-05-05 09:33:00,
2013-05-05 05:42:00,68.0,62.0,29.79,NW,318,6.0,14.0,80,0.00,,,0.06,,2013-05-05 09:42:00,
2013-05-05 05:52:00,68.0,62.0,29.80,WNW,294,5.0,13.0,80,0.00,,,0.06,,2013-05-05 09:52:00,
2013-05-05 06:03:00,68.0,61.0,29.80,WSW,255,4.0,14.0,79,0.00,,,0.06,,2013-05-05 10:03:00,
2013-05-05 06:12:00,68.0,61.0,29.80,WSW,255,4.0,14.0,79,0.00,,,0.06,,2013-05-05 10:12:00,
2013-05-05 06:22:00,68.0,61.0,29.80,NNW,342,5.0,14.0,78,0.00,,,0.06,,2013-05-05 10:22:00,
2013-05-05 06:32:00,67.0,60.0,29.81,NW,320,5.0,15.0,77,0.00,,,0.06,,2013-05-05 10:32:00,
2013-05-05 06:42:00,67.0,60.0,29.81,NW,320,5.0,15.0,77,0.00,,,0.06,,2013-05-05 10:42:00,
2013-05-05 06:53:00,67.0,59.0,29.82,NNW,327,9.0,15.0,75,0.00,,,0.06,,2013-05-05 10:53:00,
2013-05-05 07:01:00,67.0,58.0,29.83,NNW,340,11.0,15.0,74,0.00,,,0.06,,2013-05-05 11:01:00,
2013-05-05 07:12:00,67.0,58.0,29.83,NNW,340,11.0,15.0,74,0.00,,,0.06,,2013-05-05 11:12:00,
2013-05-05 07:22:00,67.0,59.0,29.84,NNW,327,7.0,18.0,75,0.00,,,0.06,,2013-05-05 11:22:00,
2013-05-05 07:32:00,66.0,57.0,29.85,NW,319,8.0,15.0,74,0.00,,,0.06,,2013-05-05 11:32:00,
2013-05-05 07:42:00,66.0,57.0,29.85,NW,319,8.0,15.0,74,0.00,,,0.06,,2013-05-05 11:42:00,
2013-05-05 07:52:00,66.0,58.0,29.85,NW,319,6.0,13.0,76,0.00,,,0.06,,2013-05-05 11:52:00,
2013-05-05 08:02:00,66.0,57.0,29.86,NW,319,8.0,15.0,74,0.00,,,0.06,,2013-05-05 12:02:00,
2013-05-05 08:11:00,66.0,57.0,29.86,NW,319,8.0,15.0,74,0.00,,,0.06,,2013-05-05 12:11:00,
2013-05-05 08:22:00,67.0,58.0,29.86,North,355,10.0,16.0,74,0.00,,,0.06,,2013-05-05 12:22:00,
2013-05-05 08:32:00,67.0,58.0,29.87,NW,310,8.0,16.0,72,0.00,,,0.06,,2013-05-05 12:32:00,
2013-05-05 08:42:00,67.0,58.0,29.87,NW,310,8.0,16.0,72,0.00,,,0.06,,2013-05-05 12:42:00,
2013-05-05 08:52:00,67.0,56.0,29.87,North,355,8.0,17.0,69,0.00,,,0.06,,2013-05-05 12:52:00,
2013-05-05 09:01:00,67.0,56.0,29.88,NW,320,8.0,17.0,67,0.00,,,0.06,,2013-05-05 13:01:00,
2013-05-05 09:11:00,67.0,56.0,29.88,NW,320,8.0,17.0,67,0.00,,,0.06,,2013-05-05 13:11:00,
2013-05-05 09:21:00,68.0,56.0,29.88,NNW,328,8.0,17.0,66,0.00,,,0.06,,2013-05-05 13:21:00,
2013-05-05 09:32:00,68.0,56.0,29.89,NNW,333,9.0,16.0,65,0.00,,,0.06,,2013-05-05 13:32:00,
2013-05-05 09:42:00,68.0,56.0,29.89,NNW,333,9.0,16.0,65,0.00,,,0.06,,2013-05-05 13:42:00,
2013-05-05 09:52:00,69.0,58.0,29.89,NNW,331,6.0,15.0,67,0.00,,,0.06,,2013-05-05 13:52:00,
2013-05-05 10:02:00,69.0,56.0,29.89,North,355,8.0,14.0,63,0.00,,,0.06,,2013-05-05 14:02:00,
2013-05-05 10:11:00,70.0,56.0,29.90,NW,323,6.0,14.0,62,0.00,,,0.06,,2013-05-05 14:11:00,
2013-05-05 10:21:00,70.0,56.0,29.90,NW,323,6.0,14.0,62,0.00,,,0.06,,2013-05-05 14:21:00,
2013-05-05 10:32:00,70.0,55.0,29.90,NNW,335,6.0,11.0,60,0.00,,,0.06,,2013-05-05 14:32:00,
2013-05-05 10:42:00,70.0,55.0,29.90,NNW,335,6.0,11.0,60,0.00,,,0.06,,2013-05-05 14:42:00,
2013-05-05 10:52:00,71.0,55.0,29.91,NW,317,7.0,15.0,57,0.00,,,0.06,,2013-05-05 14:52:00,
2013-05-05 11:02:00,71.0,55.0,29.91,NW,306,7.0,18.0,57,0.00,,,0.06,,2013-05-05 15:02:00,
2013-05-05 11:11:00,71.0,55.0,29.91,NW,306,7.0,18.0,57,0.00,,,0.06,,2013-05-05 15:11:00,
2013-05-05 11:21:00,71.0,56.0,29.91,NNE,13,9.0,18.0,60,0.00,,,0.06,,2013-05-05 15:21:00,
2013-05-05 11:33:00,72.0,56.0,29.91,NNW,330,7.0,15.0,58,0.00,,,0.06,,2013-05-05 15:33:00,
2013-05-05 11:43:00,72.0,56.0,29.91,NNW,330,7.0,15.0,58,0.00,,,0.06,,2013-05-05 15:43:00,
2013-05-05 11:53:00,72.0,54.0,29.91,NW,309,10.0,22.0,54,0.00,,,0.06,,2013-05-05 15:53:00,
2013-05-05 12:03:00,72.0,54.0,29.91,NW,320,9.0,16.0,53,0.00,,,0.06,,2013-05-05 16:03:00,
2013-05-05 12:12:00,72.0,54.0,29.91,NW,320,9.0,16.0,53,0.00,,,0.06,,2013-05-05 16:12:00,
2013-05-05 12:23:00,73.0,54.0,29.91,NW,324,8.0,15.0,52,0.00,,,0.06,,2013-05-05 16:23:00,
2013-05-05 12:32:00,74.0,56.0,29.91,NW,324,9.0,15.0,54,0.00,,,0.06,,2013-05-05 16:32:00,
2013-05-05 12:42:00,74.0,56.0,29.91,NW,324,9.0,15.0,54,0.00,,,0.06,,2013-05-05 16:42:00,
2013-05-05 12:53:00,74.0,55.0,29.91,NW,313,8.0,14.0,52,0.00,,,0.06,,2013-05-05 16:53:00,
2013-05-05 13:02:00,74.0,56.0,29.91,North,360,8.0,18.0,53,0.00,,,0.06,,2013-05-05 17:02:00,
2013-05-05 13:12:00,74.0,56.0,29.91,North,360,8.0,18.0,53,0.00,,,0.06,,2013-05-05 17:12:00,
2013-05-05 13:23:00,74.0,54.0,29.90,NW,317,7.0,18.0,50,0.00,,,0.06,,2013-05-05 17:23:00,
2013-05-05 13:32:00,75.0,56.0,29.90,North,5,6.0,15.0,51,0.00,,,0.06,,2013-05-05 17:32:00,
2013-05-05 13:42:00,75.0,56.0,29.90,North,5,6.0,15.0,51,0.00,,,0.06,,2013-05-05 17:42:00,
2013-05-05 13:52:00,75.0,56.0,29.90,NNE,24,6.0,14.0,51,0.00,,,0.06,,2013-05-05 17:52:00,
2013-05-05 14:01:00,76.0,58.0,29.90,West,273,5.0,15.0,54,0.00,,,0.06,,2013-05-05 18:01:00,
2013-05-05 14:12:00,76.0,58.0,29.90,West,273,5.0,15.0,54,0.00,,,0.06,,2013-05-05 18:12:00,
2013-05-05 14:21:00,76.0,55.0,29.90,NNW,338,9.0,13.0,48,0.00,,,0.06,,2013-05-05 18:21:00,
2013-05-05 14:32:00,76.0,56.0,29.90,NNW,329,7.0,13.0,50,0.00,,,0.06,,2013-05-05 18:32:00,
2013-05-05 14:42:00,76.0,56.0,29.90,NNW,329,7.0,13.0,50,0.00,,,0.06,,2013-05-05 18:42:00,
2013-05-05 14:52:00,77.0,56.0,29.90,NNW,336,7.0,13.0,49,0.00,,,0.06,,2013-05-05 18:52:00,
2013-05-05 15:01:00,77.0,56.0,29.89,NNE,19,2.0,9.0,49,0.00,,,0.06,,2013-05-05 19:01:00,
2013-05-05 15:11:00,77.0,56.0,29.89,NNE,19,2.0,9.0,49,0.00,,,0.06,,2013-05-05 19:11:00,
2013-05-05 15:21:00,78.0,58.0,29.89,WNW,286,4.0,11.0,50,0.00,,,0.06,,2013-05-05 19:21:00,
2013-05-05 15:32:00,76.0,58.0,29.89,NW,307,5.0,14.0,54,0.00,,,0.06,,2013-05-05 19:32:00,
2013-05-05 15:42:00,76.0,58.0,29.89,NW,307,5.0,14.0,54,0.00,,,0.06,,2013-05-05 19:42:00,
2013-05-05 15:52:00,75.0,58.0,29.89,West,275,8.0,17.0,55,0.00,,,0.06,,2013-05-05 19:52:00,
2013-05-05 16:01:00,74.0,57.0,29.89,NW,305,6.0,16.0,56,0.00,,,0.06,,2013-05-05 20:01:00,
2013-05-05 16:11:00,74.0,57.0,29.89,NW,305,6.0,16.0,56,0.00,,,0.06,,2013-05-05 20:11:00,
2013-05-05 16:21:00,74.0,59.0,29.88,West,281,6.0,18.0,59,0.00,,,0.06,,2013-05-05 20:21:00,
2013-05-05 16:32:00,75.0,58.0,29.88,WNW,292,8.0,19.0,56,0.00,,,0.06,,2013-05-05 20:32:00,
2013-05-05 16:42:00,75.0,58.0,29.88,WNW,292,8.0,19.0,56,0.00,,,0.06,,2013-05-05 20:42:00,
2013-05-05 16:52:00,74.0,57.0,29.88,NW,319,7.0,15.0,55,0.00,,,0.06,,2013-05-05 20:52:00,
2013-05-05 17:02:00,74.0,58.0,29.88,West,269,8.0,19.0,57,0.00,,,0.06,,2013-05-05 21:02:00,
2013-05-05 17:11:00,74.0,58.0,29.88,West,269,8.0,19.0,57,0.00,,,0.06,,2013-05-05 21:11:00,
2013-05-05 17:21:00,74.0,57.0,29.88,NW,307,7.0,15.0,56,0.00,,,0.06,,2013-05-05 21:21:00,
2013-05-05 17:33:00,74.0,58.0,29.89,West,271,6.0,16.0,57,0.00,,,0.06,,2013-05-05 21:33:00,
2013-05-05 17:42:00,74.0,58.0,29.89,West,271,6.0,16.0,57,0.00,,,0.06,,2013-05-05 21:42:00,
2013-05-05 17:53:00,74.0,58.0,29.89,NNW,331,7.0,14.0,57,0.00,,,0.06,,2013-05-05 21:53:00,
2013-05-05 18:02:00,73.0,58.0,29.89,WNW,293,7.0,16.0,60,0.00,,,0.06,,2013-05-05 22:02:00,
2013-05-05 18:12:00,73.0,58.0,29.89,WNW,293,7.0,16.0,60,0.00,,,0.06,,2013-05-05 22:12:00,
2013-05-05 18:22:00,73.0,60.0,29.89,West,278,5.0,15.0,63,0.00,,,0.06,,2013-05-05 22:22:00,
2013-05-05 18:33:00,73.0,61.0,29.89,NW,325,3.0,16.0,66,0.00,,,0.06,,2013-05-05 22:33:00,
2013-05-05 18:42:00,73.0,61.0,29.89,NW,325,3.0,16.0,66,0.00,,,0.06,,2013-05-05 22:42:00,
2013-05-05 18:52:00,73.0,61.0,29.90,NW,306,6.0,13.0,65,0.00,,,0.06,,2013-05-05 22:52:00,
2013-05-05 19:02:00,73.0,60.0,29.90,NW,313,5.0,14.0,64,0.00,,,0.06,,2013-05-05 23:02:00,
2013-05-05 19:11:00,73.0,60.0,29.90,NW,313,5.0,14.0,64,0.00,,,0.06,,2013-05-05 23:11:00,
2013-05-05 19:21:00,73.0,61.0,29.90,NNW,332,2.0,12.0,65,0.00,,,0.06,,2013-05-05 23:21:00,
2013-05-05 19:32:00,72.0,60.0,29.90,West,278,6.0,11.0,65,0.00,,,0.06,,2013-05-05 23:32:00,
2013-05-05 19:42:00,72.0,60.0,29.90,West,278,6.0,11.0,65,0.00,,,0.06,,2013-05-05 23:42:00,
2013-05-05 19:52:00,72.0,60.0,29.91,WNW,284,3.0,10.0,67,0.00,,,0.06,,2013-05-05 23:52:00,
2013-05-05 20:01:00,71.0,59.0,29.91,NW,316,3.0,9.0,66,0.00,,,0.06,,2013-05-06 00:01:00,
2013-05-05 20:11:00,71.0,59.0,29.91,NW,316,3.0,9.0,66,0.00,,,0.06,,2013-05-06 00:11:00,
2013-05-05 20:21:00,71.0,60.0,29.91,West,270,3.0,8.0,68,0.00,,,0.06,,2013-05-06 00:21:00,
2013-05-05 20:32:00,71.0,60.0,29.91,NW,304,2.0,6.0,68,0.00,,,0.06,,2013-05-06 00:32:00,
2013-05-05 20:41:00,71.0,60.0,29.91,NW,304,2.0,6.0,68,0.00,,,0.06,,2013-05-06 00:41:00,
2013-05-05 20:52:00,70.0,60.0,29.91,West,261,1.0,7.0,70,0.00,,,0.06,,2013-05-06 00:52:00,
2013-05-05 21:01:00,70.0,59.0,29.91,WNW,291,2.0,6.0,69,0.00,,,0.06,,2013-05-06 01:01:00,
2013-05-05 21:11:00,70.0,59.0,29.91,WNW,291,2.0,6.0,69,0.00,,,0.06,,2013-05-06 01:11:00,
2013-05-05 21:21:00,70.0,60.0,29.92,WSW,248,0.0,0.0,71,0.00,,,0.06,,2013-05-06 01:21:00,
2013-05-05 21:31:00,70.0,61.0,29.92,SW,221,0.0,2.0,72,0.00,,,0.06,,2013-05-06 01:31:00,
2013-05-05 21:42:00,70.0,61.0,29.92,SW,221,0.0,2.0,72,0.00,,,0.06,,2013-05-06 01:42:00,
2013-05-05 21:52:00,69.0,59.0,29.92,SW,232,0.0,0.0,71,0.00,,,0.06,,2013-05-06 01:52:00,
2013-05-05 22:02:00,69.0,61.0,29.92,SW,232,0.0,0.0,75,0.00,,,0.06,,2013-05-06 02:02:00,
2013-05-05 22:12:00,69.0,61.0,29.92,SW,232,0.0,0.0,75,0.00,,,0.06,,2013-05-06 02:12:00,
2013-05-05 22:21:00,68.0,59.0,29.93,SW,232,0.0,0.0,74,0.00,,,0.06,,2013-05-06 02:21:00,
2013-05-05 22:32:00,68.0,60.0,29.93,SW,232,0.0,0.0,76,0.00,,,0.06,,2013-05-06 02:32:00,
2013-05-05 22:42:00,68.0,60.0,29.93,SW,232,0.0,0.0,76,0.00,,,0.06,,2013-05-06 02:42:00,
2013-05-05 22:52:00,68.0,60.0,29.93,SW,215,0.0,0.0,75,0.00,,,0.06,,2013-05-06 02:52:00,
2013-05-05 23:02:00,68.0,60.0,29.93,SSW,207,0.0,0.0,76,0.00,,,0.06,,2013-05-06 03:02:00,
2013-05-05 23:11:00,68.0,60.0,29.93,SSW,207,0.0,0.0,76,0.00,,,0.06,,2013-05-06 03:11:00,
2013-05-05 23:22:00,67.0,60.0,29.93,SSW,207,0.0,0.0,79,0.00,,,0.06,,2013-05-06 03:22:00,
2013-05-05 23:33:00,67.0,61.0,29.93,SSW,207,0.0,0.0,80,0.00,,,0.06,,2013-05-06 03:33:00,
2013-05-05 23:42:00,67.0,61.0,29.93,SSW,207,0.0,0.0,80,0.00,,,0.06,,2013-05-06 03:42:00,
2013-05-05 23:52:00,67.0,61.0,29.93,SSW,207,0.0,0.0,81,0.00,,,0.06,,2013-05-06 03:52:00,